Location: Rounton
(54.4000°N, 1.3500°W)
Time: 04:36:17
(UTC+00:00)

Vanguard 1 - Pass Details

Date: 06 December 2021
Orbit: 652 x 3830 km, 34.2° (Epoch: 17 January)

Event Time Altitude Azimuth Distance (km) Brightness Sun altitude
Exits shadow 23:49:38 13° 104° (ESE) 6,282 14.0 -58.2°
Drops below altitude 10° 23:50:52 10° 102° (ESE) 6,440 14.1 -58.2°
Sets 23:55:53 0° 95° (E) 7,147 14.4 -58.2°
